Flag for U.S.A. Weather past 2 weeks in Fort Worth, Texas, U.S.A.

Now
69 °F

Overcast.


Feels Like: 69 °F
Forecast: 69 / 79 °F
Wind: 6 mph from East

Location: Meacham International Airport

Current Time: May 23, 2015 at 1:47:46 AM

Latest Report: May 23, 2015 at 12:53 AM


Visibility: 7 mi

Pressure: 30.06 "Hg

Humidity: 93%

Dew point: 67 °F

Location of Fort WorthLocation

Historic Weather in Fort Worth — Graph

°F

Fort Worth temperature yesterday

Maximum temperature yesterday: 68 °F (at 10:53 PM)
Minimum temperature yesterday: 61 °F (at 5:53 AM)
Average temperature yesterday: 64 °F

Past Weeks' High & Low Weather Summary

 TemperatureHumidityPressure
High90 °F (May 18, 4:53 PM)97% (May 13, 1:04 PM)30.26 "Hg (May 13, 1:04 PM)
Low56 °F (May 21, 4:58 AM)42% (May 12, 10:53 AM)29.68 "Hg (May 16, 6:53 PM)
Average72 °F81%29.97 "Hg
* Reported May 8 12:53 AM — May 23 12:53 AM, Fort Worth, Weather by CustomWeather, © 2015

Note: Actual official high and low records may vary slightly from our data, if they occured in-between our weather recording intervals... More about our weather records

Advertising

Fort Worth weather history for previous 24 hours

 ConditionsComfort  
Time TempWeatherWind HumidityBarometerVisibility
12:53 AM
Sat, May 23
69 °FOvercast.6 mph93%30.06 "Hg7 mi
11:53 PM
Fri, May 22
68 °FFog.7 mph93%30.07 "Hg5 mi
10:53 PM68 °FLight rain. Fog.8 mph93%30.08 "Hg4 mi
9:53 PM67 °FLight rain. Fog.7 mph97%30.07 "Hg3 mi
8:53 PM67 °FOvercast.7 mph90%30.06 "Hg8 mi
7:53 PM67 °FOvercast.6 mph87%30.06 "Hg8 mi
6:53 PM67 °FOvercast.8 mph85%30.06 "Hg10 mi
5:53 PM67 °FOvercast.5 mph85%30.07 "Hg10 mi
4:53 PM67 °FOvercast.6 mph81%30.08 "Hg10 mi
3:53 PM65 °FOvercast.7 mph85%30.09 "Hg10 mi
2:53 PM63 °FOvercast.5 mph87%30.11 "Hg10 mi
1:53 PM62 °FMostly cloudy.9 mph90%30.11 "Hg10 mi
12:56 PM61 °FLight rain. Fog.8 mph93%30.14 "Hg3 mi
11:53 AM61 °FFog.12 mph90%30.13 "Hg3 mi
10:53 AM62 °FLow clouds.8 mph90%30.13 "Hg7 mi
9:53 AM61 °FLow clouds.12 mph93%30.14 "Hg8 mi
8:53 AM61 °FFog.9 mph93%30.13 "Hg3 mi
8:00 AM61 °FFog.7 mph93%30.15 "Hg3 mi
6:53 AM61 °FLight rain. Fog.9 mph97%30.14 "Hg2 mi
5:53 AM61 °FFog.8 mph97%30.12 "Hg4 mi
4:53 AM62 °FMostly cloudy.12 mph90%30.11 "Hg9 mi
3:53 AM63 °FOvercast.9 mph87%30.10 "Hg10 mi
2:53 AM63 °FOvercast.7 mph87%30.11 "Hg10 mi
1:53 AM63 °FMostly cloudy.9 mph84%30.11 "Hg10 mi
Weather by CustomWeather, © 2015

See weather overviewHow to use our weather pages